Tracking 24122 objects as of 9-Dec-2021
HD Live streaming from Space Station
objects crossing your sky now

OPS 4682 DEB

Track OPS 4682 DEB now!
10-day predictions


NORAD ID: 27545
Int'l Code: 1965-027BH
Perigee: 1,278.9 km
Apogee: 1,311.5 km
Inclination: 90.3 °
Period: 111.3 minutes
Semi major axis: 7666 km
RCS: 0.0218 m2 (small)
Launch date: April 3, 1965
Source: United States (US)
Launch site: AIR FORCE WESTERN TEST RANGE (AFWTR)

Note: This is SATELLITE DEBRIS
aabbcc
Your satellite tracking list
Your tracking list is empty




NASA's NSSDC Master Catalog

Two Line Element Set (TLE):
1 27545U 65027BH  21342.24238156  .00000013  00000-0  22701-4 0  9996
2 27545  90.2726 329.2506 0021258 246.6874 126.4413 12.93394273941652
Source of the keplerian elements: AFSPC